Weather History for LKMT - September, 2013

Change the Weather History Date:

Friday, September 13, 2013

  Actual Average (EPKT) Record (EPKT)
Temperature  
Mean Temperature 50 °F -  
Max Temperature 56 °F 63 °F 77 °F (2000)
Min Temperature 45 °F 45 °F 33 °F (2008)
Degree Days  
Heating Degree Days 14    
Moisture  
Dew Point 49 °F    
Average Humidity 90    
Maximum Humidity 94    
Minimum Humidity 77    
Precipitation  
Precipitation 0.12 in 0.07 in - ()
Sea Level Pressure  
Sea Level Pressure 30.01 in    
Wind  
Wind Speed 4 mph ()    
Max Wind Speed 12 mph    
Max Gust Speed -    
Visibility 5.8 miles    
Events Rain    
Averages and records for this station are not official NWS values.
T = Trace of Precipitation, MM = Missing Value Source: Averaged Metar Reports

Daily Weather History Graph

Daily Weather History Graph

Search for Another Location

Airport or City:

Trip Planner

Search our weather history database for the weather conditions in past years. The results will help you decide how hot, cold, wet, or windy it might be!

Date:

Astronomy

Sep. 13, 2013 Rise Set
Actual Time 6:20 AM CEST 7:05 PM CEST
Civil Twilight 5:48 AM CEST 7:37 PM CEST
Nautical Twilight 5:09 AM CEST 8:16 PM CEST
Astronomical Twilight 4:28 AM CEST 8:57 PM CEST
Moon 3:03 PM CEST (9/13) No Moon Set
Length of Visible Light 13h 49m
Length of Day
12h 44m
First Quarter, 58% of the Moon is Illuminated
Sep 13
First Quarter
Sep 19
Full
Sep 27
Last Quarter
Oct 5
New
Oct 12
First Quarter

Hourly Weather History & Observations

Time (CEST) Temp. Dew Point Humidity Pressure Visibility Wind Dir Wind Speed Gust Speed Precip Events Conditions
12:00 AM 50.0 °F 46.4 °F 87% 29.98 in - South 3.5 mph - N/A   Clear
12:30 AM 48.2 °F 46.4 °F 93% 29.98 in 6.2 mi Variable 2.3 mph - N/A   Partly Cloudy
1:00 AM 48.2 °F 46.4 °F 93% 29.98 in - Variable 2.3 mph - N/A   Clear
1:30 AM 48.2 °F 46.4 °F 93% 29.98 in - Variable 2.3 mph - N/A   Clear
2:00 AM 48.2 °F 46.4 °F 93% 29.98 in - Variable 1.2 mph - N/A   Clear
2:30 AM 48.2 °F 46.4 °F 93% 29.98 in - SW 4.6 mph - N/A   Clear
3:00 AM 48.2 °F 46.4 °F 93% 29.98 in - Variable 2.3 mph - N/A   Clear
3:30 AM 46.4 °F 44.6 °F 93% 29.98 in 5.6 mi Variable 2.3 mph - N/A   Unknown
4:00 AM 48.2 °F 46.4 °F 93% 29.98 in - Variable 2.3 mph - N/A   Clear
4:30 AM 48.2 °F 46.4 °F 93% 29.98 in 6.2 mi Variable 1.2 mph - N/A   Scattered Clouds
5:00 AM 50.0 °F 48.2 °F 94% 29.98 in 6.2 mi SW 3.5 mph - N/A   Overcast
5:30 AM 50.0 °F 48.2 °F 94% 29.98 in 6.2 mi SW 4.6 mph - N/A   Overcast
6:00 AM 50.0 °F 48.2 °F 94% 29.98 in 6.2 mi SW 3.5 mph - N/A   Overcast
6:30 AM 50.0 °F 48.2 °F 94% 29.98 in 6.2 mi SW 3.5 mph - N/A   Overcast
7:00 AM 50.0 °F 48.2 °F 94% 29.98 in 6.2 mi SW 2.3 mph - N/A   Overcast
7:30 AM 51.8 °F 48.2 °F 88% 30.01 in 6.2 mi Variable 1.2 mph - N/A   Mostly Cloudy
8:00 AM 51 °F 49 °F 92% 30.01 in 6 mi 4.5 mph - -   Overcast
8:00 AM 51.8 °F 50.0 °F 94% 30.01 in 6.2 mi WSW 3.5 mph - N/A   Overcast
8:30 AM 51.8 °F 50.0 °F 94% 30.01 in 5.0 mi Variable 2.3 mph - N/A Rain Light Rain
9:00 AM 51.8 °F 50.0 °F 94% 30.01 in 5.0 mi Variable 2.3 mph - N/A Rain Light Rain
9:30 AM 51.8 °F 50.0 °F 94% 30.01 in 4.3 mi WSW 4.6 mph - N/A Rain Light Rain
10:00 AM 53.6 °F 50.0 °F 88% 30.01 in 6.2 mi WSW 3.5 mph - N/A   Partly Cloudy
10:30 AM 53.6 °F 50.0 °F 88% 30.01 in 6.2 mi Variable 2.3 mph - N/A   Partly Cloudy
11:00 AM 53.6 °F 50.0 °F 88% 30.01 in 6.2 mi SW 3.5 mph - N/A   Partly Cloudy
11:30 AM 55.4 °F 50.0 °F 82% 30.01 in 6.2 mi WSW 3.5 mph - N/A   Mostly Cloudy
12:00 PM 55.4 °F 50.0 °F 82% 30.01 in 6.2 mi Variable 2.3 mph - N/A   Overcast
12:30 PM 57.2 °F 50.0 °F 77% 30.01 in 6.2 mi SW 3.5 mph - N/A   Mostly Cloudy
1:00 PM 55.4 °F 50.0 °F 82% 30.04 in 6.2 mi NW 8.1 mph - N/A   Mostly Cloudy
1:21 PM 53.6 °F 48.2 °F 82% 30.04 in 3.1 mi WNW 8.1 mph - N/A Rain Rain
1:30 PM 51.8 °F 48.2 °F 88% 30.04 in 3.7 mi WNW 8.1 mph - N/A Rain Rain
2:00 PM 52 °F 49 °F 88% 30.04 in 4 mi SW 6.7 mph - - Rain Light Rain
2:00 PM 51.8 °F 50.0 °F 94% 30.04 in 4.3 mi WSW 4.6 mph - N/A Rain Light Rain
2:30 PM 53.6 °F 50.0 °F 88% 30.01 in 6.2 mi SW 8.1 mph - N/A Rain Light Rain
3:00 PM 53.6 °F 50.0 °F 88% 30.01 in 6.2 mi SW 8.1 mph - N/A Rain Light Rain
3:30 PM 55.4 °F 50.0 °F 82% 30.04 in 6.2 mi SSW 6.9 mph - N/A   Scattered Clouds
4:00 PM 55.4 °F 50.0 °F 82% 30.04 in 6.2 mi SSW 8.1 mph - N/A   Scattered Clouds
4:30 PM 55.4 °F 51.8 °F 88% 30.01 in 6.2 mi SW 8.1 mph - N/A   Mostly Cloudy
5:00 PM 55.4 °F 51.8 °F 88% 30.01 in 6.2 mi SSW 9.2 mph - N/A   Scattered Clouds
5:30 PM 55.4 °F 51.8 °F 88% 30.01 in - SSW 8.1 mph - N/A   Clear
6:00 PM 55.4 °F 51.8 °F 88% 30.01 in - SSW 8.1 mph - N/A   Clear
6:30 PM 55.4 °F 51.8 °F 88% 30.01 in 6.2 mi SSW 6.9 mph - N/A   Scattered Clouds
7:00 PM 53.6 °F 51.8 °F 94% 30.01 in 6.2 mi SSW 5.8 mph - N/A   Partly Cloudy
7:30 PM 53.6 °F 50.0 °F 88% 30.01 in 6.2 mi SSW 5.8 mph - N/A   Partly Cloudy
8:00 PM 54 °F 51 °F 85% 30.03 in 6 mi SSW 4.5 mph - -   Partly Cloudy
8:00 PM 53.6 °F 50.0 °F 88% 30.01 in - South 4.6 mph - N/A   Clear
8:30 PM 53.6 °F 50.0 °F 88% 30.01 in - SSW 8.1 mph - N/A   Clear
9:00 PM 53.6 °F 50.0 °F 88% 30.01 in - SSW 9.2 mph - N/A   Clear
9:30 PM 51.8 °F 50.0 °F 94% 30.01 in 6.2 mi SW 9.2 mph - N/A   Mostly Cloudy
10:00 PM 51.8 °F 50.0 °F 94% 30.01 in 6.2 mi SW 11.5 mph - N/A   Mostly Cloudy
10:30 PM 51.8 °F 50.0 °F 94% 29.98 in - SSW 10.4 mph - N/A   Clear
11:00 PM 51.8 °F 50.0 °F 94% 30.01 in 6.2 mi SW 10.4 mph - N/A   Scattered Clouds
11:30 PM 51.8 °F 50.0 °F 94% 30.01 in 5.0 mi WSW 5.8 mph - N/A Rain Light Rain